Zurück zum Katalog

STARLINK-32439

AktivKommunikationVLEO
NORAD 61665·PAYLOAD·🇺🇸 United States

Gestartet Oct 26, 2024 von Cape Canaveral Space Force Station

Loading…

Nächste Überflüge (nächste 24 Stunden)

TLE

AktuellSource: CelesTrak SupGP

Epoche: Sep 14, 2026, 21:00 UTC

1 61665C 24193E   26257.87548611  .00019477  00000+0  57564-3 0  2579
2 61665  53.1579 291.7958 0001326  87.0195  82.0964 15.34370876    13

Verfolge STARLINK-32439 in Echtzeit mit AllMySat

Download on the App Store